La Grande, OR

9:17 PM PST on December 15, 2019 (GMT -0800)
La Grande-Union County

Weather History for KLGD - September, 2019

Change the Weather History Date:

Saturday, September 14, 2019

  Actual Average Record
Temperature  
Mean Temperature 65 °F -  
Max Temperature 84 °F 73 °F 93 °F (2000)
Min Temperature 46 °F 43 °F 25 °F (1970)
Growing Degree Days 15 (Base 50)    
Moisture  
Dew Point 48 °F    
Average Humidity 62    
Maximum Humidity 96    
Minimum Humidity 25    
Precipitation  
Precipitation 0.00 in - - ()
Sea Level Pressure  
Sea Level Pressure 30.40 in    
Wind  
Wind Speed 4 mph (West)    
Max Wind Speed 17 mph    
Max Gust Speed 21 mph    
Visibility 10 miles    
Events      
Averages and records for this station are not official NWS values.
T = Trace of Precipitation, MM = Missing Value Source: NWS Daily Summary

Daily Weather History Graph

Daily Weather History Graph

Search for Another Location

Airport or City:

Astronomy

Sep. 14, 2019 Rise Set
Actual Time 6:29 AM PDT 7:05 PM PDT
Civil Twilight 5:59 AM PDT 7:34 PM PDT
Nautical Twilight 5:24 AM PDT 8:09 PM PDT
Astronomical Twilight 4:47 AM PDT 8:46 PM PDT
Moon 7:48 PM PDT (9/14) 6:45 AM PDT (9/14)
Length of Visible Light 13h 35m
Length of Day
12h 35m
Full, 100% of the Moon is Illuminated
Sep 14
Full
Sep 21
Last Quarter
Sep 28
New
Oct 5
First Quarter
Oct 13
Full

Hourly Weather History & Observations

Time (PDT) Temp. Dew Point Humidity Pressure Visibility Wind Dir Wind Speed Gust Speed Precip Events Conditions
12:56 AM 53.1 °F 46.9 °F 80% 30.51 in 10.0 mi Calm Calm - N/A   Clear
1:56 AM 52.0 °F 46.9 °F 83% 30.51 in 10.0 mi Calm Calm - N/A   Clear
2:56 AM 50.0 °F 46.9 °F 89% 30.50 in 10.0 mi Calm Calm - N/A   Clear
3:56 AM 50.0 °F 46.9 °F 89% 30.50 in 10.0 mi Calm Calm - N/A   Clear
4:56 AM 48.9 °F 46.0 °F 90% 30.50 in 10.0 mi Calm Calm - N/A   Clear
5:56 AM 46.9 °F 45.0 °F 93% 30.49 in 10.0 mi South 3.5 mph - N/A   Clear
6:56 AM 46.0 °F 45.0 °F 96% 30.50 in 10.0 mi Calm Calm - N/A   Clear
7:56 AM 52.0 °F 48.0 °F 86% 30.51 in 10.0 mi Calm Calm - N/A   Clear
8:56 AM 55.9 °F 48.9 °F 77% 30.50 in 10.0 mi Calm Calm - N/A   Clear
9:56 AM 61.0 °F 50.0 °F 67% 30.48 in 10.0 mi WNW 3.5 mph - N/A   Clear
10:56 AM 66.9 °F 51.1 °F 57% 30.45 in 10.0 mi NNW 5.8 mph - N/A   Clear
11:56 AM 73.0 °F 51.1 °F 46% 30.42 in 10.0 mi Variable 4.6 mph - N/A   Clear
12:56 PM 78.1 °F 48.9 °F 36% 30.39 in 10.0 mi ESE 6.9 mph - N/A   Clear
1:56 PM 82.0 °F 48.0 °F 30% 30.35 in 10.0 mi South 15.0 mph 20.7 mph N/A   Clear
2:56 PM 84.0 °F 46.0 °F 26% 30.31 in 10.0 mi South 17.3 mph - N/A   Clear
3:56 PM 84.0 °F 45.0 °F 25% 30.29 in 10.0 mi South 9.2 mph - N/A   Clear
5:56 PM 78.1 °F 50.0 °F 37% 30.27 in 10.0 mi West 12.7 mph - N/A   Clear
6:56 PM 71.1 °F 51.1 °F 49% 30.27 in 10.0 mi NNW 13.8 mph - N/A   Clear
7:56 PM 71.1 °F 48.9 °F 45% 30.29 in 10.0 mi NW 9.2 mph - N/A   Clear
8:56 PM 69.1 °F 46.0 °F 44% 30.30 in 10.0 mi West 12.7 mph - N/A   Clear
9:56 PM 68.0 °F 45.0 °F 43% 30.30 in 10.0 mi NW 13.8 mph 18.4 mph N/A   Clear
10:56 PM 61.0 °F 46.9 °F 60% 30.29 in 10.0 mi NW 8.1 mph - N/A   Clear
11:56 PM 57.9 °F 46.9 °F 67% 30.28 in 10.0 mi Variable 3.5 mph - N/A   Clear